Лимбяяха

Россия / Ямало-Ненецкий автономный округ     66°01′18″N   78°04′46″E
темп.,
°C
ветер,
м/с
пор.,
м/с
влажн.,
%
обл.,
%
осадки,
мм/ч
давл.,
гПа
погр.,
м
16 июня, ср
ср1623:00+18сз5879100 0.1 999192
02:00+15ссз489285 1.3 1001336
05:00+12с7989100 1.6 1002382
08:00+11с788488 0.0 1003373
11:00+11с7980100 0.0 1004412
14:00+13с797391 0.0 1005584
17:00+16с786120 0.0 1005836
20:00+16с57620 0.0 1005772
17 июня, чт
чт1723:00+12ссз46650 0.0 1005101
02:00+10ссз34580 0.0 100549
05:00+13сз33455 0.0 1004169
08:00+17зюз22320 0.0 1003678
11:00+20юз45285 0.0 10021186
14:00+23ююз672125 0.0 10001449
17:00+23ююз67270 0.0 9981568
20:00+22ююв61042100 0.0 997296
18 июня, пт
пт1823:00+11сз71181100 0.1 999374
02:00+7ссз81080100 0.6 1000533
05:00+5ссз91487100 10.1 1002627
08:00+7ссз91265100 1.0 1003852
11:00+11ссз91143100 1.0 10051275
14:00+13ссз91036100 0.0 10061675
17:00+12ссз8940100 0.0 10071626
20:00+10ссз6944100 0.0 10091217
19 июня, сб
сб1923:00+7ссз51056100 0.0 1010341
02:00+6ссз4865100 0.0 1011223
05:00+8ссз5855100 0.0 1012701
08:00+10с4548100 0.0 10121185
11:00+13с3441100 0.0 10121384
14:00+15ссз233695 0.0 10111683
17:00+16сз233387 0.0 10111974
20:00+15ююв334165 0.0 101091
20 июня, вс
вс2023:00+12ю344985 0.0 1010100
02:00+10ю47575 0.0 1009129
05:00+12ю45535 0.0 1009272
08:00+15ююз444385 0.0 10081054
11:00+17ююз4436100 0.0 10072263
14:00+18юз2335100 0.0 10072379
17:00+16с3245100 0.0 10071578
20:00+15ссв3454100 0.0 1008474